www.pogodaiklimat.ru

Погода и климат >> Архив погоды >> Россия >> Адыгея >> Гузерипль


ПОГОДА в Гузерипле

  • Прогноз погоды в Гузерипле
  • Монитор погоды в Гузерипле

АРХИВ ПОГОДЫ в Гузерипле

Время (UTC), дата Ветер
(напр.,м/с)
 
Видим.   Явления Облачность Т
(С)
Тd
(С)
f
(%)
Тe
(С)
Тes
(С)
Комфортность P
(гПа)
Po
(гПа)
Тmin
(С)
Tmax
(С)
R
(мм)
R24
(мм)
S
(см)
00 13.08 штиль 0 20 км ясно +9.5 +9.5 100 +9 +9 1020.6 940.9
03 13.08 штиль 0 20 км ясно +18.5 +8.4 52 +19 +19 1021.5 941.4 +8.4
06 13.08 ЮВ 1 20 км ясно +18.7 +11.2 62 +20 +30 1017.4 940.4
09 13.08 ЮЗ 1 20 км ясно +26.6 +13.8 45 +29 +48 жарко 1013.8 939.5
15 13.08 З 1 20 км ясно +25.3 +12.1 44 +27 +28 жарко 1012.1 937.2 +29.8
18 13.08 штиль 0 20 км ясно +16.2 +13.7 85 +16 +16 1016.0 938.6
21 13.08 ЮЗ 1 20 км ясно +12.7 +12.4 98 +13 +13 1016.3 937.9
00 14.08 ЮЗ 1 20 км ясно +10.9 +10.8 99 +10 +10 1016.9 937.9
03 14.08 ЮЗ 1 20 км ясно +9.4 +9.4 100 +9 +9 1017.5 938.1 +9.3
06 14.08 В 1 20 км ясно +20.0 +11.9 60 +23 +33 комфорт 1012.8 936.6
09 14.08 В 2 20 км ясно +28.5 +13.6 40 +30 +47 жарко 1007.9 934.5
12 14.08 В 1 20 км ясно +31.0 +15.1 38 +33 +46 душно 1006.3 933.6
15 14.08 З 1 20 км ясно +25.1 +15.5 55 +28 +29 жарко 1008.0 933.4 +31.1
18 14.08 З 1 20 км ясно +17.6 +15.2 86 +19 +19 1011.0 934.3
21 14.08 ЮЗ 1 20 км ясно +14.5 +14.2 98 +15 +15 1011.4 933.9
00 15.08 З 1 20 км ясно +12.9 +12.8 99 +13 +13 1011.7 933.7
03 15.08 штиль 0 20 км ясно +11.8 +12.8 100 +11 +11 1012.2 933.8 +11.8
06 15.08 В 1 20 км ясно +22.6 +14.3 59 +26 +36 жарко 1008.4 933.2 +11.6
09 15.08 В 1 20 км ясно +31.0 +15.3 39 +33 +53 опасность
солнечного
удара
1004.1 932.0
12 15.08 В 1 20 км ясно +34.0 +13.3 29 +35 +47 очень
жарко
1002.9 930.7
15 15.08 штиль 0 20 км ясно +27.5 +16.9 52 +31 +33 душно 1004.2 930.5 +35.0
18 15.08 З 1 20 км ясно +19.9 +17.5 86 +24 +24 комфорт 1008.1 932.3
21 15.08 ЮЗ 1 20 км ясно +16.9 +16.4 97 +18 +18 1009.9 933.1
00 16.08 З 1 20 км 10/0
[Cs]
+16.1 +15.8 98 +17 +17 1010.4 933.4
03 16.08 штиль 0 20 км 10/10 1000 м
[Sc]
+16.5 +16.1 97 +16 +16 1009.8 933.0 +15.9
06 16.08 ЮВ 1 20 км 6/6 1000 м
[Sc]
+21.3 +16.5 74 +25 +29 комфорт 1007.2 932.3
09 16.08 В 1 20 км гроза без осадков {ливн. осадки} 9/9 1000 м
[Cb cap]
+27.3 +19.6 63 +33 +35 очень
душно
1005.6 731.9
12 16.08 ЮЗ 1 20 км гроза без осадков {ливн. осадки} 10/10 1000 м
[Cb cap]
+25.6 +21.3 77 +32 +32 очень
душно
1004.7 930.7
15 16.08 штиль 0 20 км {гроза} 8/8 1000 м
[Sc diur, vesp]
+24.4 +20.6 79 +30 +31 очень
душно
1004.3 930.1 +28.5 0.0
18 16.08 штиль 0 20 км гроза без осадков {ливн. осадки} 10/10 600 м
[Cb cap]
+20.8 +20.7 99 +25 +25 комфорт 1008.4 932.9
21 16.08 штиль 0 20 км зарница {гроза, ливн. осадки} 10/10 300 м
[Cb cap]
+19.1 +19.1 100 +21 +21 комфорт 1008.1 932.2
00 17.08 штиль 0 10 км слаб. ливневой дождь {гроза} 10/10 300 м
[Cb cap]
+18.8 +18.8 100 +20 +20 1007.9 931.9
03 17.08 СВ 1 20 км {ливн. осадки} 10/10 300 м
[Cb cap]
+18.7 +17.5 93 +21 +21 комфорт 1008.8 932.7 +18.7 7
06 17.08 штиль 0 4000 м гроза, ливневой дождь 10/10 300 м
[Cb cap]
+17.8 +17.8 100 +18 +18 1009.9 933.5 +17.8
09 17.08 штиль 0 10 км гроза, ливневой дождь 10/10 600 м
[Cb cap]
+19.2 +19.2 100 +21 +21 комфорт 1009.8 933.8
12 17.08 СВ 1 20 км {гроза} 10/8 1000 м
[Cb cap Ci]
+22.7 +18.3 76 +28 +30 душно 1008.6 933.5
15 17.08 СЗ 1 20 км 10/10 1000 м
[Cb cap]
+21.4 +17.7 79 +26 +26 душно 1009.5 934.0 +25.3 9
18 17.08 штиль 0 20 км 10/10 1000 м
[Cb cap]
+19.3 +19.0 98 +21 +21 комфорт 1010.8 934.7
21 17.08 штиль 0 4000 м дымка 10/10 1000 м
[Sc diur, vesp]
+18.9 +18.8 99 +20 +20 1010.0 933.9
00 18.08 штиль 0 4000 м гроза, ливневой дождь 10/10 1000 м
[Cb cap]
+18.6 +18.6 100 +20 +20 1009.6 933.4
03 18.08 штиль 0 10 км слаб. ливневой дождь {гроза} 10/10 300 м
[Cb cap]
+17.9 +17.9 100 +18 +18 1009.5 933.1 +17.9 12
06 18.08 штиль 0 10 км гроза, ливневой дождь 10/10 300 м
[Cb cap]
+18.4 +18.4 100 +19 +19 1009.9 933.6 +17.8
09 18.08 ЮЗ 1 20 км {гроза, ливн. осадки} 10/10 600 м
[Cb cap]
+20.3 +19.5 95 +25 +25 комфорт 1009.1 933.4
12 18.08 штиль 0 20 км {гроза, ливн. осадки} 9/9 600 м
[Cb cap]
+22.9 +19.9 83 +30 +31 очень
душно
1008.9 933.9
15 18.08 штиль 0 20 км 10/10 600 м
[Cb cap]
+20.9 +20.4 97 +26 +26 душно 1010.3 934.7 +24.0 16
18 18.08 штиль 0 20 км {ливн. осадки} 10/10 300 м
[Cb cap]
+19.6 +19.5 99 +22 +22 комфорт 1012.8 936.6
21 18.08 штиль 0 20 км 10/10 300 м
[Cb cap]
+18.5 +18.5 100 +19 +19 1013.2 936.7
00 19.08 штиль 0 20 км 10/10 300 м
[Cb cap]
+18.0 +18.0 100 +18 +18 1013.9 937.3
03 19.08 штиль 0 20 км 10/10 600 м
[Sc diur, vesp]
+17.8 +17.7 99 +18 +18 1015.1 938.2 +17.7 0.3
06 19.08 В 1 20 км 3/3 1000 м
[Sc diur, vesp]
+22.8 +17.7 73 +28 +35 душно 1014.1 938.6
09 19.08 В 1 20 км 4/3 1500 м
[Sc Ci]
+27.2 +18.6 59 +32 +45 очень
душно
1012.3 938.0
12 19.08 В 1 20 км 6/6 1000 м
[Sc]
+27.3 +19.1 61 +33 +37 очень
душно
1012.3 938.0
15 19.08 штиль 0 20 км 10/10 1000 м
[Sc diur, vesp]
+23.6 +20.5 83 +29 +29 душно 1013.7 938.6 +28.2
18 19.08 штиль 0 20 км 3/3 1500 м
[Sc]
+20.0 +19.8 99 +23 +23 комфорт 1016.5 940.2
21 19.08 штиль 0 20 км 10/10 1000 м
[Sc]
+18.5 +18.5 100 +19 +19 1017.1 940.3

 

Местоположение метеостанции Гузерипль (Адыгея, Россия): широта 44.00 долгота 40.13 высота над уровнем моря 677 м.

В архиве по умолчанию представлена погода в Гузерипле за последнюю неделю. Архивные данные за месяц целиком и за предыдущие месяцы, начиная с января 2011 года, Вы можете получить, выбрав интересующий диапазон дат из раскрывающегося списка и нажав кнопку "Ввод!".


*Определитесь, кто Вы:
робот инопланетянин человек

Внимание! Время в таблицах - всемирное. Для получения местного времени необходимо прибавить поправку, которая равна 3 ч.

Смотрите также архив погоды в соседних городах и на ближайших метеорологических станциях:

Погода в Красной Поляне (Краснодарский край, Россия) (36 км)
Погода на Кордоне Лаура (Краснодарский край, Россия) (36 км)
Погода в Горная Карусель 1500 (Краснодарский край, Россия) (41 км)
Погода в Горная Карусель 1000 (Краснодарский край, Россия) (41 км)
Погода в Кепше (Краснодарский край, Россия) (43 км)
Погода в Солох Ауле (Краснодарский край, Россия) (46 км)
Погода в Шунтуке (Адыгея, Россия) (52 км)
Погода в Кичмае (Краснодарский край, Россия) (53 км)
Погода в Псебае (Краснодарский край, Россия) (54 км)
Погода в Сочи (Краснодарский край, Россия) (55 км)

Пояснения к столбцам:

Ветер - указаны скорость ветра в м/с - средняя за 10 мин, порывы в срок и между сроками (в фигурных скобках) и направление, откуда дует ветер: С - северный, СВ - северо-восточный, В - восточный, ЮВ - юго-восточный, Ю - южный, ЮЗ - юго-западный, З - западный, СЗ - северо-западный.
Видимость - горизонтальная дальность видимости в метрах или километрах. При видимости от 1 до 10 км при отсутствии осадков обычно наблюдается дымка, при ухудшении видимости до 1 км и менее - туман. В сухую погоду видимость может ухудшаться дымом, пылью или мглою.
Явления - указаны атмосферные явления, наблюдавшиеся в срок или в последний час перед сроком; фигурными скобками обозначены явления, наблюдавшиеся между сроками (за 1-3 часа до срока); квадратными скобками обозначены град или гололедные отложения с указанием их диаметра в мм.
Облачность - указаны через наклонную черту общая и нижняя облачность в баллах и высота нижней границы облаков в метрах; квадратными скобками обозначены формы облаков: Ci - перистые, Cs - перисто-слоистые, Cc - перисто-кучевые, Ac - высококучевые, As - высокослоистые, Sc - слоисто-кучевые, Ns - слоисто-дождевые, Cu - кучевые, Cb - кучево-дождевые. Подробнее классификацию облаков см. в Атласе облаков (PDF).
T - Температура воздуха - температура, измеренная на высоте 2 м над землей.
Td - Температура точки росы - температура, при понижении до которой содержащийся в воздухе водяной пар достигнет насыщения.
f - Относительная влажность воздуха - влажноcть воздуха, измеренная на высоте 2 м над землей.
Te - Эффективная температура - температура, которую ощущает одетый по сезону человек в тени. Характеристика душности погоды. При расчете учитывается влияние влажности воздуха и скорости ветра на теплоощущения человека.
Tes - Эффективная температура на солнце - температура, которую ощущает человек, с поправкой на солнечный нагрев. Характеристика знойности погоды. Зависит от высоты солнца над горизонтом, облачности и скорости ветра. Ночью, в пасмурную погоду, а также при ветре 12 м/с и более поправка равна нулю.
P - Атмосферное давление - приведенное к уровню моря атмосферное давление.
Po - Атмосферное давление - измеренное на уровне метеостанции атмосферное давление.
Tmin - Минимальная температура - минимум температуры воздуха на высоте 2 м над землей.
Tmax - Максимальная температура - максимум температуры воздуха на высоте 2 м над землей.
R - Количество осадков - Количество выпавших осадков за период времени, мм. При наведении курсора мыши на число - период времени, за который выпало указанное количество осадков.
R24 - Количество осадков - Количество выпавших осадков за 24 часа, мм.
S - Снежный покров - Высота снежного покрова, см. При наведении курсора мыши на число - состояние снежного покрова и степень покрытия местности в баллах.